Time,TemperatureF,DewpointF,PressureIn,WindDirection,WindDirectionDegrees,WindSpeedMPH,WindSpeedGustMPH,Humidity,HourlyPrecipIn,Conditions,Clouds,dailyrainin,SoftwareType,DateUTC
2013-05-21 00:00:00,59.8,52.9,29.94,West,270,0.0,0.0,78,0.00,,,0.06,WUHU216HW,2013-05-21 05:00:00,
2013-05-21 00:05:00,59.8,52.9,29.94,West,270,0.0,0.0,78,0.00,,,0.00,WUHU216HW,2013-05-21 05:05:00,
2013-05-21 00:09:00,59.8,52.9,29.94,West,270,0.0,0.0,78,0.00,,,0.00,WUHU216HW,2013-05-21 05:09:00,
2013-05-21 00:30:00,59.6,53.1,29.93,West,270,0.0,0.0,79,0.00,,,0.00,WUHU216HW,2013-05-21 05:30:00,
2013-05-21 00:35:00,59.6,53.1,29.93,West,270,0.0,0.0,79,0.00,,,0.00,WUHU216HW,2013-05-21 05:35:00,
2013-05-21 01:00:00,59.2,53.5,29.91,NNE,23,0.7,0.7,81,0.00,,,0.00,WUHU216HW,2013-05-21 06:00:00,
2013-05-21 01:05:00,59.4,53.7,29.91,NNE,23,0.7,0.7,81,0.00,,,0.00,WUHU216HW,2013-05-21 06:05:00,
2013-05-21 01:10:00,59.4,53.7,29.91,NNE,23,0.7,0.7,81,0.00,,,0.00,WUHU216HW,2013-05-21 06:10:00,
2013-05-21 01:30:00,59.6,53.5,29.91,NE,45,0.0,0.0,80,0.00,,,0.00,WUHU216HW,2013-05-21 06:30:00,
2013-05-21 01:35:00,59.6,53.5,29.91,NE,45,0.0,0.0,80,0.00,,,0.00,WUHU216HW,2013-05-21 06:35:00,
2013-05-21 01:59:00,60.1,54.4,29.89,ESE,113,0.9,0.9,81,0.00,,,0.00,WUHU216HW,2013-05-21 06:59:00,
2013-05-21 02:00:00,60.1,54.4,29.89,ESE,113,0.9,0.9,81,0.00,,,0.00,WUHU216HW,2013-05-21 07:00:00,
2013-05-21 02:05:00,60.1,54.4,29.89,ESE,113,0.9,0.9,81,0.00,,,0.00,WUHU216HW,2013-05-21 07:05:00,
2013-05-21 02:30:00,61.7,56.2,29.88,East,90,2.5,2.5,82,0.00,,,0.00,WUHU216HW,2013-05-21 07:30:00,
2013-05-21 02:35:00,61.7,56.2,29.88,East,90,2.5,2.5,82,0.00,,,0.00,WUHU216HW,2013-05-21 07:35:00,
2013-05-21 03:00:00,62.3,56.7,29.88,ESE,113,3.8,3.8,82,0.00,,,0.00,WUHU216HW,2013-05-21 08:00:00,
2013-05-21 03:05:00,62.3,56.7,29.88,ESE,113,3.8,3.8,82,0.00,,,0.00,WUHU216HW,2013-05-21 08:05:00,
2013-05-21 03:30:00,61.2,57.3,29.86,East,90,2.9,2.9,87,0.01,,,0.00,WUHU216HW,2013-05-21 08:30:00,
2013-05-21 03:35:00,61.2,57.3,29.86,East,90,2.9,2.9,87,0.01,,,0.00,WUHU216HW,2013-05-21 08:35:00,
2013-05-21 04:00:00,60.8,57.6,29.88,ESE,113,7.8,7.8,89,0.13,,,0.00,WUHU216HW,2013-05-21 09:00:00,
2013-05-21 04:05:00,60.8,57.6,29.88,ESE,113,7.8,7.8,89,0.13,,,0.00,WUHU216HW,2013-05-21 09:05:00,
2013-05-21 04:30:00,60.5,57.6,29.87,ESE,113,2.5,2.5,90,0.24,,,0.13,WUHU216HW,2013-05-21 09:30:00,
2013-05-21 04:35:00,60.5,57.6,29.87,ESE,113,2.5,2.5,90,0.24,,,0.13,WUHU216HW,2013-05-21 09:35:00,
2013-05-21 05:00:00,60.1,57.5,29.85,ENE,68,2.9,2.9,91,0.25,,,0.26,WUHU216HW,2013-05-21 10:00:00,
2013-05-21 05:05:00,60.1,57.5,29.85,ENE,68,2.9,2.9,91,0.25,,,0.26,WUHU216HW,2013-05-21 10:05:00,
2013-05-21 05:30:00,60.1,57.8,29.83,East,90,1.8,1.8,92,0.11,,,0.38,WUHU216HW,2013-05-21 10:30:00,
2013-05-21 05:35:00,60.1,57.8,29.83,East,90,1.8,1.8,92,0.11,,,0.38,WUHU216HW,2013-05-21 10:35:00,
2013-05-21 06:00:00,60.1,57.5,29.85,SE,135,6.9,6.9,91,0.01,,,0.38,WUHU216HW,2013-05-21 11:00:00,
2013-05-21 06:05:00,60.1,57.5,29.85,SE,135,6.9,6.9,91,0.01,,,0.38,WUHU216HW,2013-05-21 11:05:00,
2013-05-21 06:30:00,60.1,57.8,29.85,SE,135,7.6,7.6,92,0.01,,,0.39,WUHU216HW,2013-05-21 11:30:00,
2013-05-21 06:35:00,60.1,57.8,29.85,SE,135,7.6,7.6,92,0.01,,,0.39,WUHU216HW,2013-05-21 11:35:00,
2013-05-21 07:00:00,60.5,58.1,29.85,SE,135,7.6,7.6,92,0.01,,,0.39,WUHU216HW,2013-05-21 12:00:00,
2013-05-21 07:05:00,60.5,58.1,29.85,SE,135,7.6,7.6,92,0.01,,,0.39,WUHU216HW,2013-05-21 12:05:00,
2013-05-21 07:30:00,60.8,58.0,29.86,SW,225,1.1,1.1,90,0.01,,,0.40,WUHU216HW,2013-05-21 12:30:00,
2013-05-21 07:35:00,60.8,58.0,29.86,SW,225,1.1,1.1,90,0.01,,,0.40,WUHU216HW,2013-05-21 12:35:00,
2013-05-21 08:00:00,61.0,57.8,29.88,SW,225,0.9,0.9,89,0.00,,,0.40,WUHU216HW,2013-05-21 13:00:00,
2013-05-21 08:05:00,61.0,57.8,29.88,SW,225,0.9,0.9,89,0.00,,,0.40,WUHU216HW,2013-05-21 13:05:00,
2013-05-21 08:30:00,63.0,59.4,29.88,SSW,203,0.7,0.7,88,0.00,,,0.40,WUHU216HW,2013-05-21 13:30:00,
2013-05-21 08:35:00,63.0,59.4,29.88,SSW,203,0.7,0.7,88,0.00,,,0.40,WUHU216HW,2013-05-21 13:35:00,
2013-05-21 08:59:00,64.4,59.9,29.88,SSE,158,0.7,0.7,85,0.00,,,0.40,WUHU216HW,2013-05-21 13:59:00,
2013-05-21 09:00:00,64.4,59.9,29.88,SSE,158,0.7,0.7,85,0.00,,,0.40,WUHU216HW,2013-05-21 14:00:00,
2013-05-21 09:05:00,64.4,59.9,29.88,SSE,158,0.7,0.7,85,0.00,,,0.40,WUHU216HW,2013-05-21 14:05:00,
2013-05-21 09:30:00,67.5,61.2,29.88,SE,135,1.3,1.3,80,0.00,,,0.40,WUHU216HW,2013-05-21 14:30:00,
2013-05-21 09:35:00,67.5,61.2,29.88,SE,135,1.3,1.3,80,0.00,,,0.40,WUHU216HW,2013-05-21 14:35:00,
2013-05-21 10:00:00,68.0,60.2,29.87,SSE,158,2.5,2.5,76,0.00,,,0.40,WUHU216HW,2013-05-21 15:00:00,
2013-05-21 10:05:00,68.0,60.2,29.87,SSE,158,2.5,2.5,76,0.00,,,0.40,WUHU216HW,2013-05-21 15:05:00,
2013-05-21 10:30:00,67.3,59.1,29.88,SW,225,1.8,1.8,75,0.00,,,0.40,WUHU216HW,2013-05-21 15:30:00,
2013-05-21 10:35:00,67.3,59.1,29.88,SW,225,1.8,1.8,75,0.00,,,0.40,WUHU216HW,2013-05-21 15:35:00,
2013-05-21 11:00:00,69.5,59.2,29.88,SSW,203,0.7,0.7,70,0.00,,,0.40,WUHU216HW,2013-05-21 16:00:00,
2013-05-21 11:05:00,69.5,59.2,29.88,South,180,1.3,1.3,70,0.00,,,0.40,WUHU216HW,2013-05-21 16:05:00,
2013-05-21 11:10:00,69.5,59.2,29.88,South,180,1.3,1.3,70,0.00,,,0.40,WUHU216HW,2013-05-21 16:10:00,
2013-05-21 11:30:00,71.6,59.7,29.88,West,270,2.2,2.2,66,0.00,,,0.40,WUHU216HW,2013-05-21 16:30:00,
2013-05-21 11:35:00,71.6,59.7,29.88,West,270,2.2,2.2,66,0.00,,,0.40,WUHU216HW,2013-05-21 16:35:00,
2013-05-21 12:00:00,69.1,58.5,29.88,South,180,2.0,2.0,69,0.00,,,0.40,WUHU216HW,2013-05-21 17:00:00,
2013-05-21 12:05:00,69.1,58.5,29.88,South,180,2.0,2.0,69,0.00,,,0.40,WUHU216HW,2013-05-21 17:05:00,
2013-05-21 12:10:00,69.1,58.5,29.88,South,180,2.0,2.0,69,0.00,,,0.40,WUHU216HW,2013-05-21 17:10:00,
2013-05-21 12:30:00,68.0,58.0,29.88,South,180,3.8,3.8,70,0.00,,,0.40,WUHU216HW,2013-05-21 17:30:00,
2013-05-21 12:35:00,68.0,58.0,29.88,South,180,3.8,3.8,70,0.00,,,0.40,WUHU216HW,2013-05-21 17:35:00,
2013-05-21 13:00:00,65.9,58.9,29.88,SSE,158,5.6,5.6,78,0.00,,,0.40,WUHU216HW,2013-05-21 18:00:00,
2013-05-21 13:05:00,65.9,58.9,29.88,SE,135,6.0,6.0,78,0.00,,,0.40,WUHU216HW,2013-05-21 18:05:00,
2013-05-21 13:10:00,65.9,58.9,29.88,SE,135,6.0,6.0,78,0.00,,,0.40,WUHU216HW,2013-05-21 18:10:00,
2013-05-21 13:30:00,66.2,59.2,29.87,ESE,113,1.8,1.8,78,0.00,,,0.40,WUHU216HW,2013-05-21 18:30:00,
2013-05-21 13:35:00,66.2,59.2,29.87,ESE,113,1.8,1.8,78,0.00,,,0.40,WUHU216HW,2013-05-21 18:35:00,
2013-05-21 14:00:00,67.0,60.0,29.87,North,0,0.7,0.7,78,0.00,,,0.40,WUHU216HW,2013-05-21 19:00:00,
2013-05-21 14:05:00,67.1,60.1,29.87,North,0,0.4,0.7,78,0.00,,,0.40,WUHU216HW,2013-05-21 19:05:00,
2013-05-21 14:10:00,67.1,60.1,29.87,North,0,0.4,0.4,78,0.00,,,0.40,WUHU216HW,2013-05-21 19:10:00,
2013-05-21 14:30:00,68.2,60.4,29.88,SE,135,1.8,1.8,76,0.00,,,0.40,WUHU216HW,2013-05-21 19:30:00,
2013-05-21 14:35:00,68.2,60.4,29.88,SE,135,1.8,1.8,76,0.00,,,0.40,WUHU216HW,2013-05-21 19:35:00,
2013-05-21 15:00:00,70.6,59.9,29.88,SSE,158,2.5,2.5,69,0.00,,,0.40,WUHU216HW,2013-05-21 20:00:00,
2013-05-21 15:05:00,70.6,59.9,29.88,SSE,158,2.5,2.5,69,0.00,,,0.40,WUHU216HW,2013-05-21 20:05:00,
2013-05-21 15:30:00,70.4,59.3,29.88,South,180,0.4,0.4,68,0.00,,,0.40,WUHU216HW,2013-05-21 20:30:00,
2013-05-21 15:35:00,70.4,59.3,29.88,South,180,0.4,0.4,68,0.00,,,0.40,WUHU216HW,2013-05-21 20:35:00,
2013-05-21 16:00:00,68.8,59.4,29.88,North,0,0.9,0.9,72,0.00,,,0.40,WUHU216HW,2013-05-21 21:00:00,
2013-05-21 16:05:00,68.8,59.4,29.88,North,0,0.9,0.9,72,0.00,,,0.40,WUHU216HW,2013-05-21 21:05:00,
2013-05-21 16:30:00,68.8,59.8,29.89,SE,135,3.6,3.6,73,0.00,,,0.40,WUHU216HW,2013-05-21 21:30:00,
2013-05-21 16:35:00,68.8,59.8,29.89,SE,135,3.6,3.6,73,0.00,,,0.40,WUHU216HW,2013-05-21 21:35:00,
2013-05-21 17:00:00,65.9,58.1,29.90,ESE,113,1.1,1.1,76,0.00,,,0.40,WUHU216HW,2013-05-21 22:00:00,
2013-05-21 17:05:00,65.9,58.1,29.90,ESE,113,1.1,1.1,76,0.00,,,0.40,WUHU216HW,2013-05-21 22:05:00,
2013-05-21 17:30:00,64.1,58.2,29.91,ESE,113,0.0,0.0,81,0.05,,,0.40,WUHU216HW,2013-05-21 22:30:00,
2013-05-21 17:35:00,64.1,58.2,29.91,ESE,113,0.0,0.0,81,0.05,,,0.40,WUHU216HW,2013-05-21 22:35:00,
2013-05-21 18:00:00,63.4,57.8,29.91,NW,315,0.0,0.0,82,0.33,,,0.45,WUHU216HW,2013-05-21 23:00:00,
2013-05-21 18:05:00,63.4,57.8,29.91,NW,315,0.0,0.0,82,0.33,,,0.45,WUHU216HW,2013-05-21 23:05:00,
2013-05-21 18:30:00,63.7,58.4,29.92,NNW,338,0.0,0.0,83,0.26,,,0.73,WUHU216HW,2013-05-21 23:30:00,
2013-05-21 18:35:00,63.7,58.4,29.92,NNW,338,0.0,0.0,83,0.26,,,0.73,WUHU216HW,2013-05-21 23:35:00,
2013-05-21 19:00:00,64.1,59.1,29.93,NW,315,0.0,0.0,84,0.01,,,0.75,WUHU216HW,2013-05-22 00:00:00,
2013-05-21 19:05:00,64.1,59.1,29.93,NW,315,0.0,0.0,84,0.01,,,0.75,WUHU216HW,2013-05-22 00:05:00,
2013-05-21 19:30:00,63.4,58.1,29.94,North,0,0.0,0.0,83,0.00,,,0.75,WUHU216HW,2013-05-22 00:30:00,
2013-05-21 19:35:00,63.4,58.1,29.94,North,0,0.0,0.0,83,0.00,,,0.75,WUHU216HW,2013-05-22 00:35:00,
2013-05-21 20:00:00,61.6,57.1,29.94,NNW,338,0.0,0.0,85,0.00,,,0.75,WUHU216HW,2013-05-22 01:00:00,
2013-05-21 20:05:00,61.6,57.1,29.94,NNW,338,0.0,0.0,85,0.00,,,0.75,WUHU216HW,2013-05-22 01:05:00,
2013-05-21 20:30:00,61.2,56.7,29.93,NW,315,0.7,0.7,85,0.00,,,0.75,WUHU216HW,2013-05-22 01:30:00,
2013-05-21 20:35:00,61.2,56.7,29.93,NW,315,0.7,0.7,85,0.00,,,0.75,WUHU216HW,2013-05-22 01:35:00,
2013-05-21 21:00:00,60.3,56.2,29.94,NNW,338,0.4,0.4,86,0.00,,,0.75,WUHU216HW,2013-05-22 02:00:00,
2013-05-21 21:05:00,60.3,56.2,29.94,NNW,338,0.4,0.4,86,0.00,,,0.75,WUHU216HW,2013-05-22 02:05:00,
2013-05-21 21:30:00,59.8,55.9,29.96,NNW,338,0.0,0.0,87,0.01,,,0.75,WUHU216HW,2013-05-22 02:30:00,
2013-05-21 21:35:00,59.8,55.9,29.96,NNW,338,0.0,0.0,87,0.01,,,0.75,WUHU216HW,2013-05-22 02:35:00,
2013-05-21 22:00:00,59.0,55.2,29.98,NW,315,0.0,0.0,87,0.01,,,0.76,WUHU216HW,2013-05-22 03:00:00,
2013-05-21 22:05:00,59.0,55.2,29.98,NW,315,0.0,0.0,87,0.01,,,0.76,WUHU216HW,2013-05-22 03:05:00,
2013-05-21 22:30:00,58.5,54.6,29.98,WNW,293,0.4,0.4,87,0.00,,,0.76,WUHU216HW,2013-05-22 03:30:00,
2013-05-21 22:35:00,58.5,54.6,29.98,WNW,293,0.4,0.4,87,0.00,,,0.76,WUHU216HW,2013-05-22 03:35:00,
2013-05-21 23:00:00,57.6,53.7,29.97,North,0,1.1,1.1,87,0.02,,,0.76,WUHU216HW,2013-05-22 04:00:00,
2013-05-21 23:01:00,57.6,53.7,29.97,North,0,1.1,1.1,87,0.02,,,0.76,WUHU216HW,2013-05-22 04:01:00,
2013-05-21 23:06:00,57.6,53.7,29.97,North,0,1.1,1.1,87,0.02,,,0.76,WUHU216HW,2013-05-22 04:06:00,
2013-05-21 23:30:00,57.1,53.6,29.98,NNE,23,0.4,0.4,88,0.02,,,0.78,WUHU216HW,2013-05-22 04:30:00,
2013-05-21 23:35:00,57.1,53.6,29.98,NNE,23,0.4,0.4,88,0.02,,,0.78,WUHU216HW,2013-05-22 04:35:00,